Tracking 27401 objects as of 4-Jun-2023
HD Live streaming from Space Station
objects crossing your sky now

STARLINK-4778

Track STARLINK-4778 now!
10-day predictions
STARLINK-4778 is classified as:


NORAD ID: 53836
Int'l Code: 2022-114U
Perigee: 546.2 km
Apogee: 547.6 km
Inclination: 53.2 °
Period: 95.4 minutes
Semi major axis: 6917 km
RCS: Unknown
Launch date: September 19, 2022
Source: United States (US)
Launch site: AIR FORCE EASTERN TEST RANGE (AFETR)
Your satellite tracking list
Your tracking list is empty




NASA's NSSDC Master Catalog

Two Line Element Set (TLE):
1 53836U 22114U   23154.36272282 -.00000246  00000-0  26345-5 0  9990
2 53836  53.2151 149.8579 0001051  93.6659 266.4453 15.08832551 40442
Source of the keplerian elements: AFSPC